Location: Baix
(44.7118°N, 4.7648°E)
Time: 19:18:38
(UTC+00:00)

NOSS 0 Rocket - Pass Details

Date: 07 August 2020
Orbit: 933 x 956 km, 70.0° (Epoch: 24 September)

Event Time Altitude Azimuth Distance (km) Brightness Sun altitude
Rises 01:36:16 0° 326° (NNW) 3,636 7.4 -24.1°
Reaches altitude 10° 01:38:57 10° 319° (NW) 2,689 6.5 -23.8°
Enters shadow 01:44:40 39° 254° (WSW) 1,388 4.4 -23.3°
